• In Netherlands
  • List of Countries
  • For 7 days
  • Water Temperature
  • Satellite Maps
  • Weather Map
  • Weather Widgets
  • user-avatar
    Login

    Hourly Weather Shaki

    Today, 21 January, Saturday

    Time Temperature Precipitation Wind Pressure Humidity
    00:00 -1°C° 0 mm 1 mps 741 mmHg 82%
    01:00 -1°C° 0 mm 1 mps 740 mmHg 78%
    02:00 -1°C° 0 mm 1 mps 740 mmHg 75%
    03:00 -3°C° 0 mm 2 mps 740 mmHg 72%
    04:00 -3°C° 0 mm 2 mps 740 mmHg 72%
    05:00 -4°C° 0 mm 2 mps 740 mmHg 71%
    06:00 -2°C° 0 mm 1 mps 739 mmHg 71%
    07:00 -1°C° 0 mm 1 mps 740 mmHg 66%
    08:00 +1°C° 0 mm 1 mps 740 mmHg 62%
    09:00 +3°C° 0 mm 1 mps 740 mmHg 56%
    10:00 +4°C° 0 mm 1 mps 740 mmHg 55%
    11:00 +4°C° 0 mm 2 mps 739 mmHg 54%
    12:00 +5°C° 0 mm 2 mps 739 mmHg 53%
    13:00 +5°C° 0 mm 2 mps 739 mmHg 53%
    14:00 +5°C° 0 mm 2 mps 739 mmHg 54%
    15:00 +5°C° 0 mm 2 mps 738 mmHg 54%
    16:00 +3°C° 0 mm 2 mps 739 mmHg 61%
    17:00 +2°C° 0 mm 1 mps 739 mmHg 68%
    18:00 0°C° 0 mm 1 mps 739 mmHg 74%
    19:00 0°C° 0 mm 1 mps 739 mmHg 72%
    20:00 0°C° 0 mm 1 mps 739 mmHg 71%
    21:00 0°C° 0 mm 1 mps 739 mmHg 69%
    22:00 -2°C° 0 mm 2 mps 739 mmHg 67%
    23:00 -2°C° 0 mm 2 mps 739 mmHg 66%

    Tomorrow, 22 January, Sunday

    Time Temperature Precipitation Wind Pressure Humidity
    00:00 -3°C° 0 mm 2 mps 739 mmHg 64%
    01:00 -3°C° 0 mm 2 mps 739 mmHg 64%
    02:00 -4°C° 0 mm 3 mps 739 mmHg 64%
    03:00 -4°C° 0 mm 3 mps 739 mmHg 64%
    04:00 -4°C° 0 mm 3 mps 739 mmHg 64%
    05:00 -4°C° 0 mm 3 mps 738 mmHg 64%
    06:00 -4°C° 0 mm 3 mps 738 mmHg 64%
    07:00 -2°C° 0 mm 3 mps 738 mmHg 60%
    08:00 -1°C° 0 mm 4 mps 738 mmHg 57%
    09:00 0°C° 0 mm 4 mps 738 mmHg 53%
    10:00 +1°C° 0 mm 4 mps 738 mmHg 50%
    11:00 +2°C° 0 mm 5 mps 738 mmHg 48%
    12:00 +5°C° 0 mm 5 mps 738 mmHg 45%
    13:00 +5°C° 0 mm 5 mps 738 mmHg 46%
    14:00 +5°C° 0 mm 4 mps 738 mmHg 47%
    15:00 +5°C° 0 mm 4 mps 739 mmHg 47%
    16:00 +3°C° 0 mm 3 mps 740 mmHg 53%
    17:00 +2°C° 0 mm 2 mps 740 mmHg 59%
    18:00 +2°C° 0 mm 1 mps 741 mmHg 64%
    19:00 +1°C° 0 mm 1 mps 742 mmHg 65%
    20:00 +1°C° 0 mm 1 mps 742 mmHg 65%
    21:00 +1°C° 0 mm 1 mps 743 mmHg 65%
    22:00 -1°C° 0 mm 2 mps 744 mmHg 66%
    23:00 -2°C° 0 mm 2 mps 744 mmHg 67%

    Day after tomorrow, 23 January, Monday

    Time Temperature Precipitation Wind Pressure Humidity
    00:00 -2°C° 0 mm 2 mps 744 mmHg 68%
    01:00 -2°C° 0 mm 2 mps 745 mmHg 72%
    02:00 -2°C° 0 mm 2 mps 745 mmHg 75%
    03:00 -2°C° 0 mm 2 mps 745 mmHg 79%
    04:00 -1°C° 0 mm 1 mps 745 mmHg 83%
    05:00 -1°C° 0 mm 1 mps 745 mmHg 86%
    06:00 -1°C° 0 mm 1 mps 745 mmHg 89%
    07:00 0°C° 0 mm 1 mps 745 mmHg 84%
    08:00 +1°C° 0 mm 1 mps 745 mmHg 80%
    09:00 +2°C° 0 mm 1 mps 746 mmHg 76%
    10:00 +2°C° 0 mm 2 mps 745 mmHg 70%
    11:00 +3°C° 0 mm 2 mps 745 mmHg 64%
    12:00 +4°C° 0 mm 3 mps 744 mmHg 58%
    13:00 +4°C° 0 mm 3 mps 744 mmHg 56%
    14:00 +5°C° 0 mm 2 mps 744 mmHg 55%
    15:00 +6°C° 0 mm 2 mps 743 mmHg 54%
    16:00 +3°C° 0 mm 2 mps 744 mmHg 61%
    17:00 +2°C° 0 mm 1 mps 744 mmHg 68%
    18:00 0°C° 0 mm 1 mps 744 mmHg 75%
    19:00 -1°C° 0 mm 1 mps 745 mmHg 76%
    20:00 -1°C° 0 mm 1 mps 745 mmHg 76%
    21:00 -1°C° 0 mm 1 mps 745 mmHg 76%
    22:00 -1°C° 0 mm 1 mps 745 mmHg 77%
    23:00 -1°C° 0 mm 1 mps 745 mmHg 78%

    24 January, Tuesday

    Time Temperature Precipitation Wind Pressure Humidity
    00:00 -1°C° 0 mm 1 mps 745 mmHg 79%
    01:00 -1°C° 0 mm 1 mps 745 mmHg 80%
    02:00 -2°C° 0 mm 1 mps 745 mmHg 81%
    03:00 -2°C° 0 mm 1 mps 745 mmHg 81%
    04:00 -2°C° 0 mm 1 mps 745 mmHg 82%
    05:00 -2°C° 0 mm 1 mps 745 mmHg 83%
    06:00 -2°C° 0 mm 1 mps 745 mmHg 84%
    07:00 -1°C° 0 mm 0 mps 745 mmHg 78%
    08:00 +1°C° 0 mm 0 mps 745 mmHg 71%
    09:00 +3°C° 0 mm 0 mps 745 mmHg 64%
    10:00 +5°C° 0 mm 1 mps 745 mmHg 60%
    11:00 +6°C° 0 mm 1 mps 744 mmHg 55%
    12:00 +8°C° 0 mm 1 mps 743 mmHg 51%
    13:00 +8°C° 0 mm 1 mps 742 mmHg 49%
    14:00 +8°C° 0 mm 1 mps 742 mmHg 47%
    15:00 +7°C° 0 mm 2 mps 741 mmHg 46%
    16:00 +5°C° 0 mm 2 mps 741 mmHg 50%
    17:00 +3°C° 0 mm 2 mps 741 mmHg 54%
    18:00 +1°C° 0 mm 2 mps 741 mmHg 58%
    19:00 +1°C° 0 mm 1 mps 740 mmHg 57%
    20:00 +1°C° 0 mm 1 mps 740 mmHg 57%
    21:00 +1°C° 0 mm 1 mps 740 mmHg 56%
    22:00 +1°C° 0 mm 1 mps 739 mmHg 54%
    23:00 -1°C° 0 mm 2 mps 739 mmHg 52%

    25 January, Wednesday

    Time Temperature Precipitation Wind Pressure Humidity
    00:00 -1°C° 0 mm 2 mps 738 mmHg 49%
    01:00 -1°C° 0 mm 2 mps 738 mmHg 47%
    02:00 -1°C° 0 mm 2 mps 737 mmHg 45%
    03:00 -1°C° 0 mm 3 mps 737 mmHg 43%
    04:00 -1°C° 0 mm 3 mps 736 mmHg 43%
    05:00 -1°C° 0 mm 3 mps 736 mmHg 42%
    06:00 -1°C° 0 mm 3 mps 736 mmHg 41%
    07:00 +1°C° 0 mm 3 mps 736 mmHg 40%
    08:00 +2°C° 0 mm 3 mps 735 mmHg 38%
    09:00 +4°C° 0 mm 3 mps 735 mmHg 37%
    10:00 +5°C° 0 mm 3 mps 735 mmHg 35%
    11:00 +8°C° 0 mm 3 mps 734 mmHg 33%
    12:00 +10°C° 0 mm 4 mps 733 mmHg 32%
    13:00 +10°C° 0 mm 4 mps 733 mmHg 32%
    14:00 +10°C° 0 mm 4 mps 733 mmHg 32%
    15:00 +10°C° 0 mm 3 mps 732 mmHg 32%
    16:00 +8°C° 0 mm 3 mps 732 mmHg 35%
    17:00 +7°C° 0 mm 3 mps 732 mmHg 38%
    18:00 +4°C° 0 mm 3 mps 732 mmHg 40%
    19:00 +4°C° 0 mm 3 mps 732 mmHg 43%
    20:00 +4°C° 0 mm 3 mps 732 mmHg 46%
    21:00 +4°C° 0 mm 3 mps 731 mmHg 49%
    22:00 +4°C° 0 mm 3 mps 731 mmHg 52%
    23:00 +4°C° 0 mm 3 mps 731 mmHg 54%

    26 January, Thursday

    Time Temperature Precipitation Wind Pressure Humidity
    00:00 +4°C° 0 mm 3 mps 730 mmHg 57%
    01:00 +4°C° 0 mm 3 mps 730 mmHg 57%
    02:00 +3°C° 0 mm 3 mps 730 mmHg 58%
    03:00 +3°C° 0 mm 4 mps 730 mmHg 58%
    04:00 +3°C° 0 mm 4 mps 730 mmHg 58%
    05:00 +3°C° 0 mm 4 mps 730 mmHg 58%
    06:00 +1°C° 0 mm 4 mps 730 mmHg 58%
    07:00 +4°C° 0 mm 4 mps 730 mmHg 55%
    08:00 +5°C° 0 mm 4 mps 730 mmHg 53%
    09:00 +6°C° 0 mm 4 mps 731 mmHg 50%
    10:00 +7°C° 0 mm 4 mps 731 mmHg 48%
    11:00 +8°C° 0 mm 5 mps 730 mmHg 45%
    12:00 +9°C° 0 mm 5 mps 730 mmHg 43%
    13:00 +9°C° 0 mm 5 mps 730 mmHg 43%
    14:00 +9°C° 0 mm 5 mps 730 mmHg 43%
    15:00 +8°C° 0 mm 5 mps 731 mmHg 42%
    16:00 +6°C° 0 mm 4 mps 731 mmHg 45%
    17:00 +4°C° 0 mm 3 mps 732 mmHg 47%
    18:00 +2°C° 0 mm 3 mps 732 mmHg 49%
    19:00 +2°C° 0 mm 3 mps 733 mmHg 49%
    20:00 +2°C° 0 mm 3 mps 733 mmHg 50%
    21:00 +2°C° 0 mm 2 mps 734 mmHg 50%
    22:00 +2°C° 0 mm 2 mps 734 mmHg 52%
    23:00 +2°C° 0 mm 2 mps 734 mmHg 54%
    Show more